Location: *
(45.8589°N, 4.7139°E)
Time: 02:45:46
(UTC+00:00)

IRIDIUM 114 - Pass Details

Date: 09 April 2020
Orbit: 776 x 779 km, 86.4° (Epoch: 29 May)

Event Time Altitude Azimuth Distance (km) Brightness Sun altitude
Rises 18:47:36 0° 357° (N) 3,275 7.8 -5.4°
Reaches altitude 10° 18:49:58 10° 359° (N) 2,342 7.1 -5.8°
Maximum altitude 18:55:13 78° 86° (E) 800 4.3 -6.6°
Drops below altitude 10° 19:00:26 10° 173° (S) 2,323 6.5 -7.5°
Sets 19:02:46 0° 175° (S) 3,246 7.3 -7.9°
